Weather History for Buckeye, AZ

Change the Weather History Date:

Sunday, December 8, 2013

  Actual Average (KGYR) Record (KGYR)
Temperature  
Mean Temperature 45 °F -  
Max Temperature 53 °F 64 °F 82 °F (1996)
Min Temperature 35 °F 40 °F 32 °F (2011)
Degree Days  
Heating Degree Days 20    
Moisture  
Dew Point 27 °F    
Average Humidity 49    
Maximum Humidity 87    
Minimum Humidity 24    
Precipitation  
Precipitation 0.00 in - - ()
Sea Level Pressure  
Sea Level Pressure 30.07 in    
Wind  
Wind Speed 8 mph (West)    
Max Wind Speed 14 mph    
Max Gust Speed -    
Visibility 10 miles    
Events      
Averages and records for this station are not official NWS values.
T = Trace of Precipitation, MM = Missing Value Source: NWS Daily Summary

Daily Weather History Graph

Daily Weather History Graph

Search for Another Location

Airport:

Trip Planner

Search our weather history database for the weather conditions in past years. The results will help you decide how hot, cold, wet, or windy it might be!

Date:

Astronomy

Dec. 08, 2013 Rise Set
Actual Time 7:22 AM MST 5:23 PM MST
Civil Twilight 6:55 AM MST 5:50 PM MST
Nautical Twilight 6:24 AM MST 6:21 PM MST
Astronomical Twilight 5:54 AM MST 6:51 PM MST
Moon 11:59 AM MST (12/8) No Moon Set
Length of Visible Light 10h 55m
Length of Day
10h 00m
Waxing Crescent, 40% of the Moon is Illuminated
Dec 8
Waxing Crescent
Dec 9
First Quarter
Dec 17
Full
Dec 25
Last Quarter
Jan 1
New

Hourly Weather History & Observations

Time (MST) Temp. Windchill Dew Point Humidity Pressure Visibility Wind Dir Wind Speed Gust Speed Precip Events Conditions
12:15 AM 51.8 °F - 41.0 °F 67% 29.99 in 10.0 mi SSW 13.8 mph - N/A   Overcast
12:35 AM 51.8 °F - 41.0 °F 67% 29.99 in 10.0 mi SSW 10.4 mph - N/A   Overcast
12:55 AM 51.8 °F - 39.2 °F 62% 29.99 in 10.0 mi SW 11.5 mph - N/A   Overcast
1:15 AM 51.8 °F - 39.2 °F 62% 30.00 in 10.0 mi SW 11.5 mph - N/A   Overcast
1:35 AM 51.8 °F - 39.2 °F 62% 30.00 in 10.0 mi WSW 10.4 mph - N/A   Overcast
1:55 AM 50.0 °F - 41.0 °F 71% 30.00 in 10.0 mi SW 10.4 mph - N/A   Mostly Cloudy
2:15 AM 50.0 °F - 39.2 °F 66% 30.00 in 10.0 mi SW 8.1 mph - N/A   Clear
2:35 AM 48.2 °F - 41.0 °F 76% 30.00 in 10.0 mi SW 6.9 mph - N/A   Unknown
2:55 AM 48.2 °F - 41.0 °F 76% 30.01 in 10.0 mi SSW 6.9 mph - N/A   Mostly Cloudy
3:15 AM 48.2 °F - 41.0 °F 76% 30.01 in 10.0 mi SW 8.1 mph - N/A   Mostly Cloudy
3:35 AM 46.4 °F 42.4 °F 41.0 °F 81% 30.01 in 10.0 mi SSW 8.1 mph - N/A   Mostly Cloudy
3:55 AM 46.4 °F 42.4 °F 41.0 °F 81% 30.01 in 10.0 mi SW 8.1 mph - N/A   Unknown
4:15 AM 46.4 °F 43.5 °F 41.0 °F 81% 30.01 in 10.0 mi WSW 5.8 mph - N/A   Unknown
4:35 AM 46.4 °F 42.9 °F 41.0 °F 81% 30.02 in 10.0 mi West 6.9 mph - N/A   Unknown
4:55 AM 44.6 °F - 41.0 °F 87% 30.03 in 10.0 mi Calm Calm - N/A   Unknown
5:15 AM 44.6 °F - 41.0 °F 87% 30.05 in 10.0 mi Calm Calm - N/A   Unknown
5:35 AM 44.6 °F 43.1 °F 39.2 °F 81% 30.04 in 10.0 mi West 3.5 mph - N/A   Unknown
5:55 AM 42.8 °F - 37.4 °F 81% 30.04 in 10.0 mi Calm Calm - N/A   Unknown
6:15 AM 42.8 °F - 35.6 °F 76% 30.05 in 10.0 mi Calm Calm - N/A   Mostly Cloudy
6:35 AM 42.8 °F 40.1 °F 35.6 °F 76% 30.07 in 10.0 mi WSW 4.6 mph - N/A   Mostly Cloudy
6:55 AM 41.0 °F 37.1 °F 33.8 °F 76% 30.08 in 10.0 mi West 5.8 mph - N/A   Unknown
7:15 AM 41.0 °F 38.0 °F 32.0 °F 70% 30.08 in 10.0 mi NW 4.6 mph - N/A   Clear
7:35 AM 41.0 °F 38.0 °F 30.2 °F 65% 30.09 in 10.0 mi WNW 4.6 mph - N/A   Mostly Cloudy
7:55 AM 39.2 °F 33.6 °F 32.0 °F 75% 30.09 in 10.0 mi NW 8.1 mph - N/A   Partly Cloudy
8:15 AM 41.0 °F 36.4 °F 28.4 °F 61% 30.10 in 10.0 mi WNW 6.9 mph - N/A   Clear
8:35 AM 42.8 °F 39.3 °F 26.6 °F 53% 30.10 in 10.0 mi WNW 5.8 mph - N/A   Clear
8:55 AM 44.6 °F 40.7 °F 24.8 °F 46% 30.11 in 10.0 mi West 6.9 mph - N/A   Clear
9:15 AM 44.6 °F 39.2 °F 24.8 °F 46% 30.12 in 10.0 mi West 10.4 mph - N/A   Clear
9:35 AM 44.6 °F 39.7 °F 24.8 °F 46% 30.13 in 10.0 mi WNW 9.2 mph - N/A   Clear
9:55 AM 46.4 °F 41.9 °F 23.0 °F 40% 30.14 in 10.0 mi WNW 9.2 mph - N/A   Clear
10:15 AM 48.2 °F - 23.0 °F 37% 30.14 in 10.0 mi West 8.1 mph - N/A   Clear
10:35 AM 48.2 °F - 26.6 °F 43% 30.14 in 10.0 mi WNW 4.6 mph - N/A   Clear
10:55 AM 50.0 °F - 28.4 °F 43% 30.13 in 10.0 mi West 3.5 mph - N/A   Clear
11:15 AM 50.0 °F - 24.8 °F 37% 30.12 in 10.0 mi Calm Calm - N/A   Clear
11:35 AM 50.0 °F - 23.0 °F 35% 30.12 in 10.0 mi West 5.8 mph - N/A   Clear
11:55 AM 51.8 °F - 19.4 °F 28% 30.12 in 10.0 mi West 6.9 mph - N/A   Clear
12:15 PM 53.6 °F - 21.2 °F 28% 30.12 in 10.0 mi WSW 4.6 mph - N/A   Clear
12:35 PM 51.8 °F - 21.2 °F 30% 30.11 in 10.0 mi SW 4.6 mph - N/A   Clear
12:55 PM 53.6 °F - 23.0 °F 30% 30.10 in 10.0 mi WSW 9.2 mph - N/A   Clear
1:15 PM 53.6 °F - 21.2 °F 28% 30.09 in 10.0 mi West 9.2 mph - N/A   Clear
1:35 PM 53.6 °F - 19.4 °F 26% 30.07 in 10.0 mi SW 9.2 mph - N/A   Clear
1:55 PM 53.6 °F - 19.4 °F 26% 30.07 in 10.0 mi SW 9.2 mph - N/A   Clear
2:15 PM 53.6 °F - 17.6 °F 24% 30.06 in 10.0 mi SW 9.2 mph - N/A   Clear
2:35 PM 53.6 °F - 17.6 °F 24% 30.05 in 10.0 mi WSW 6.9 mph - N/A   Clear
2:55 PM 53.6 °F - 19.4 °F 26% 30.04 in 10.0 mi WSW 8.1 mph - N/A   Clear
3:15 PM 53.6 °F - 19.4 °F 26% 30.04 in 10.0 mi SW 8.1 mph - N/A   Clear
3:35 PM 53.6 °F - 17.6 °F 24% 30.04 in 10.0 mi West 8.1 mph - N/A   Clear
3:55 PM 53.6 °F - 19.4 °F 26% 30.03 in 10.0 mi WSW 6.9 mph - N/A   Clear
4:15 PM 53.6 °F - 23.0 °F 30% 30.04 in 10.0 mi West 6.9 mph - N/A   Clear
4:35 PM 53.6 °F - 23.0 °F 30% 30.04 in 10.0 mi West 8.1 mph - N/A   Clear
4:55 PM 53.6 °F - 19.4 °F 26% 30.04 in 10.0 mi West 10.4 mph - N/A   Clear
5:15 PM 51.8 °F - 19.4 °F 28% 30.05 in 10.0 mi WNW 11.5 mph - N/A   Clear
5:35 PM 50.0 °F - 19.4 °F 30% 30.06 in 10.0 mi West 11.5 mph - N/A   Clear
5:55 PM 50.0 °F - 19.4 °F 30% 30.06 in 10.0 mi West 12.7 mph - N/A   Mostly Cloudy
6:15 PM 48.2 °F - 17.6 °F 30% 30.07 in 10.0 mi West 10.4 mph - N/A   Overcast
6:35 PM 48.2 °F - 17.6 °F 30% 30.07 in 10.0 mi WNW 10.4 mph - N/A   Mostly Cloudy
6:55 PM 48.2 °F - 17.6 °F 30% 30.08 in 10.0 mi WNW 9.2 mph - N/A   Scattered Clouds
7:15 PM 48.2 °F - 15.8 °F 27% 30.08 in 10.0 mi WNW 10.4 mph - N/A   Mostly Cloudy
7:35 PM 46.4 °F 41.9 °F 15.8 °F 29% 30.09 in 10.0 mi WNW 9.2 mph - N/A   Mostly Cloudy
7:55 PM 44.6 °F 40.2 °F 17.6 °F 34% 30.09 in 10.0 mi WNW 8.1 mph - N/A   Partly Cloudy
8:15 PM 44.6 °F 40.7 °F 17.6 °F 34% 30.09 in 10.0 mi NW 6.9 mph - N/A   Scattered Clouds
8:35 PM 42.8 °F 38.6 °F 19.4 °F 39% 30.08 in 10.0 mi NW 6.9 mph - N/A   Scattered Clouds
8:55 PM 42.8 °F 38.6 °F 19.4 °F 39% 30.09 in 10.0 mi NW 6.9 mph - N/A   Scattered Clouds
9:15 PM 41.0 °F 36.4 °F 19.4 °F 42% 30.10 in 10.0 mi NW 6.9 mph - N/A   Scattered Clouds
9:35 PM 41.0 °F 35.8 °F 21.2 °F 45% 30.10 in 10.0 mi NW 8.1 mph - N/A   Unknown
9:55 PM 41.0 °F 36.4 °F 21.2 °F 45% 30.11 in 10.0 mi WNW 6.9 mph - N/A   Overcast
10:15 PM 39.2 °F 34.2 °F 23.0 °F 52% 30.11 in 10.0 mi WNW 6.9 mph - N/A   Overcast
10:35 PM 39.2 °F 35.9 °F 21.2 °F 49% 30.12 in 10.0 mi NW 4.6 mph - N/A   Overcast
10:55 PM 39.2 °F 34.2 °F 19.4 °F 45% 30.12 in 10.0 mi North 6.9 mph - N/A   Scattered Clouds
11:15 PM 37.4 °F 32.8 °F 19.4 °F 48% 30.12 in 10.0 mi North 5.8 mph - N/A   Clear
11:35 PM 37.4 °F 33.8 °F 17.6 °F 45% 30.12 in 10.0 mi NNW 4.6 mph - N/A   Clear
11:55 PM 35.6 °F 29.9 °F 23.0 °F 60% 30.13 in 10.0 mi WNW 6.9 mph - N/A   Clear